Showing default

OPTUS 10, 40146

Orbit data source: Space-Track

OPTUS 10, 40146 is a payload satellite owned by SingTel Optus (AU) in GEO that was launched on Thu, 11 Sep 2014 UTC via an ARIANE 5ECA launch vehicle from the French Guiana (FRGUI). Payload-class satellites include a variety of spacecraft equipped with specific instruments for various scientific and technological missions. These include communications satellites like Starlink; space stations such as the ISS; scientific satellites like the Hubble; Earth observation satellites from companies like Planet Labs, Umbra, and HawkEye 360; GPS; miniature CubeSats for education and research; and military/defense satellites.

Not visible in the next 10 days
Identifier
40146, 2014-054A
Orbit
GEO
Last TLE update
10 hours ago
Origin
Manufacturer
SS/Loral (MDA)
Mission
Operational Commercial Communications
Bus & Motor
LS-1300LL, R-4D
Mass
3,970 kg wet, ~2,000 kg dry
Launch date (UTC)
2014-09-11 (11 years ago)
Launch vehicle
ARIANE 5ECA
Launch site
French Guiana (FRGUI)
Object type
Payload
Rocket body
Debris
Shape & HBR
Box + 2 Pan, 24.7 m
Radar Cross Section
38.560 m², Large (>1 m²)

Expand to show TLE details & history

TLE from 10 hours ago
0 OPTUS 10
1 40146U 14054A   25128.84176703 -.00000143  00000-0  00000-0 0  9992
2 40146   0.0978 325.2609 0002270  35.9540 324.7067  1.00270351 38970
Epoch: 2025-05-08T20:12Z
Definitive object data (Epoch: 2025-05-08T20:12:08.671Z)
Latitude
0.01941°
Longitude
155.96098°
Altitude
35,778.695 km
Speed
3.075 km/s
True Right ascension
21h 43m 36s
True Declination
0° 01' 10"
Sunlit
Object was in daylight at TLE epoch
Visualization TLE readout
Latitude
0.02853°
Longitude
-49.72164°
Altitude
35,791.096 km
Speed
3.074 km/s
Apparent Right ascension
07h 35m 09s
Apparent Declination
-5° 21' 21"
Sunlit
Object is in daylight
Visualization observer readout
Local Sidereal Time
14:36:25
Azimuth
275.78° WNW
Elevation
-15.168°
Doppler factor
1
Orbital elements
Apogee altitude
35,797.639 km
Perigee altitude
35,778.496 km
Semi-major axis
42,166.204 km
Eccentricity
0.000227
Inclination
0.0978°
RAAN
325.2609°
Arg. of periapsis
35.954°
True anomaly
324.69167°
Mean anomaly
324.7067°
Eccentric anomaly
324.69918°
Mean motion
0.25067 °/min
BSTAR
Unknown
Orbital period
1436.17 mins
Loading historical data...
40146 neighbors
Loading maneuver chart data...
Loading SW <> Apogee altitude chart data...
Loading historical data...
Loading historical data...
Loading historical data...
Loading historical data...
Loading historical data...
Loading historical data...
Loading historical data...
Other satellites on launch #54 in the year 2014 (2014-09-11 UTC)

OPTUS 10 Visibility forecast

Observer location: undefined°, undefined°

OPTUS 10 is not visible in the next 10 days
Span
Click to sort rows by Start time (UTC) header in descending order
Start Az.
Max El. time (UTC)
Max El. Az.
Max El.
End time (UTC)
End Az.
|